Time,TemperatureF,DewpointF,PressureIn,WindDirection,WindDirectionDegrees,WindSpeedMPH,WindSpeedGustMPH,Humidity,HourlyPrecipIn,Conditions,Clouds,dailyrainin,SoftwareType,DateUTC
2013-07-17 00:00:00,72.7,70.0,30.12,East,101,0.0,7.0,91,0.00,,,1.48,meteohub,2013-07-17 05:00:00,
2013-07-17 00:05:00,72.7,70.0,30.12,ENE,71,0.0,7.0,91,0.00,,,1.48,meteohub,2013-07-17 05:05:00,
2013-07-17 00:10:00,72.7,69.6,30.12,ENE,74,0.0,4.0,90,0.00,,,0.00,meteohub,2013-07-17 05:10:00,
2013-07-17 00:15:00,72.5,69.4,30.12,ENE,71,0.0,4.0,90,0.00,,,0.00,meteohub,2013-07-17 05:15:00,
2013-07-17 00:21:00,72.5,69.4,30.12,East,99,0.0,5.0,90,0.00,,,0.00,meteohub,2013-07-17 05:21:00,
2013-07-17 00:26:00,72.5,69.1,30.12,ESE,114,0.0,5.0,89,0.00,,,0.00,meteohub,2013-07-17 05:26:00,
2013-07-17 00:31:00,72.5,69.1,30.12,ESE,119,0.0,5.0,89,0.00,,,0.00,meteohub,2013-07-17 05:31:00,
2013-07-17 00:36:00,72.3,68.9,30.12,East,85,0.0,5.0,89,0.00,,,0.00,meteohub,2013-07-17 05:36:00,
2013-07-17 00:41:00,72.3,68.9,30.12,East,85,0.0,5.0,89,0.00,,,0.00,meteohub,2013-07-17 05:41:00,
2013-07-17 00:46:00,72.3,69.3,30.12,East,85,0.0,5.0,90,0.00,,,0.00,meteohub,2013-07-17 05:46:00,
2013-07-17 00:51:00,72.1,69.4,30.12,East,85,0.0,0.0,91,0.00,,,0.00,meteohub,2013-07-17 05:51:00,
2013-07-17 00:56:00,72.1,69.4,30.12,East,85,0.0,0.0,91,0.00,,,0.00,meteohub,2013-07-17 05:56:00,
2013-07-17 01:01:00,72.1,69.4,30.12,East,85,0.0,0.0,91,0.00,,,0.00,meteohub,2013-07-17 06:01:00,
2013-07-17 01:06:00,72.0,69.4,30.12,East,85,0.0,0.0,92,0.00,,,0.00,meteohub,2013-07-17 06:06:00,
2013-07-17 01:11:00,72.0,69.4,30.12,East,85,0.0,0.0,92,0.00,,,0.00,meteohub,2013-07-17 06:11:00,
2013-07-17 01:16:00,71.8,69.3,30.11,East,90,0.0,0.0,92,0.00,,,0.01,meteohub,2013-07-17 06:16:00,
2013-07-17 01:21:00,71.6,69.4,30.11,East,90,0.0,0.0,93,0.01,,,0.01,meteohub,2013-07-17 06:21:00,
2013-07-17 01:26:00,71.6,69.4,30.11,East,88,0.0,0.0,93,0.01,,,0.01,meteohub,2013-07-17 06:26:00,
2013-07-17 01:31:00,71.4,69.3,30.10,East,88,0.0,0.0,93,0.01,,,0.01,meteohub,2013-07-17 06:31:00,
2013-07-17 01:36:00,71.4,69.3,30.10,East,88,0.0,2.0,93,0.01,,,0.01,meteohub,2013-07-17 06:36:00,
2013-07-17 01:41:00,71.2,69.1,30.11,East,88,0.0,2.0,93,0.01,,,0.01,meteohub,2013-07-17 06:41:00,
2013-07-17 01:46:00,71.2,69.4,30.11,East,88,0.0,2.0,94,0.01,,,0.01,meteohub,2013-07-17 06:46:00,
2013-07-17 01:51:00,71.2,69.4,30.11,East,88,0.0,0.0,94,0.01,,,0.01,meteohub,2013-07-17 06:51:00,
2013-07-17 01:56:00,71.1,69.3,30.11,East,88,0.0,0.0,94,0.01,,,0.01,meteohub,2013-07-17 06:56:00,
2013-07-17 02:01:00,71.1,69.3,30.11,East,88,0.0,0.0,94,0.01,,,0.01,meteohub,2013-07-17 07:01:00,
2013-07-17 02:06:00,71.1,69.3,30.11,East,87,0.0,0.0,94,0.01,,,0.01,meteohub,2013-07-17 07:06:00,
2013-07-17 02:11:00,71.1,69.3,30.11,East,87,0.0,0.0,94,0.01,,,0.01,meteohub,2013-07-17 07:11:00,
2013-07-17 02:16:00,70.9,69.1,30.11,East,98,0.0,0.0,94,0.00,,,0.01,meteohub,2013-07-17 07:16:00,
2013-07-17 02:21:00,70.9,69.1,30.11,East,80,0.0,0.0,94,0.00,,,0.01,meteohub,2013-07-17 07:21:00,
2013-07-17 02:26:00,70.9,69.1,30.10,East,90,0.0,4.0,94,0.00,,,0.01,meteohub,2013-07-17 07:26:00,
2013-07-17 02:31:00,70.9,69.1,30.10,East,90,0.0,4.0,94,0.00,,,0.01,meteohub,2013-07-17 07:31:00,
2013-07-17 02:36:00,70.9,69.1,30.10,SE,128,2.0,3.0,94,0.00,,,0.01,meteohub,2013-07-17 07:36:00,
2013-07-17 02:41:00,70.9,69.1,30.10,SE,134,0.0,3.0,94,0.00,,,0.01,meteohub,2013-07-17 07:41:00,
2013-07-17 02:46:00,70.9,69.1,30.10,ESE,117,0.0,6.0,94,0.00,,,0.01,meteohub,2013-07-17 07:46:00,
2013-07-17 02:51:00,70.9,69.1,30.10,ESE,105,0.0,6.0,94,0.00,,,0.01,meteohub,2013-07-17 07:51:00,
2013-07-17 02:56:00,70.9,69.1,30.10,ENE,69,0.0,6.0,94,0.00,,,0.01,meteohub,2013-07-17 07:56:00,
2013-07-17 03:01:00,70.9,69.1,30.10,SE,140,0.0,6.0,94,0.00,,,0.01,meteohub,2013-07-17 08:01:00,
2013-07-17 03:06:00,70.9,69.1,30.10,ENE,73,0.0,6.0,94,0.00,,,0.01,meteohub,2013-07-17 08:06:00,
2013-07-17 03:07:00,70.9,69.1,30.10,SE,125,0.0,6.0,94,0.00,,,0.01,meteohub,2013-07-17 08:07:00,
2013-07-17 03:12:00,70.9,69.1,30.10,SE,133,0.0,6.0,94,0.00,,,0.01,meteohub,2013-07-17 08:12:00,
2013-07-17 03:17:00,70.9,69.1,30.10,ESE,122,0.0,6.0,94,0.00,,,0.01,meteohub,2013-07-17 08:17:00,
2013-07-17 03:22:00,70.7,68.9,30.10,ESE,122,0.0,6.0,94,0.00,,,0.01,meteohub,2013-07-17 08:22:00,
2013-07-17 03:27:00,70.7,68.9,30.10,ESE,119,0.0,4.0,94,0.00,,,0.01,meteohub,2013-07-17 08:27:00,
2013-07-17 03:32:00,70.5,68.7,30.10,ESE,117,0.0,4.0,94,0.00,,,0.01,meteohub,2013-07-17 08:32:00,
2013-07-17 03:37:00,70.5,68.7,30.10,ESE,116,0.0,1.0,94,0.00,,,0.01,meteohub,2013-07-17 08:37:00,
2013-07-17 03:42:00,70.5,68.7,30.10,ESE,116,0.0,1.0,94,0.00,,,0.01,meteohub,2013-07-17 08:42:00,
2013-07-17 03:47:00,70.5,68.7,30.10,ESE,116,0.0,0.0,94,0.00,,,0.01,meteohub,2013-07-17 08:47:00,
2013-07-17 03:52:00,70.5,68.7,30.10,ESE,116,0.0,0.0,94,0.00,,,0.01,meteohub,2013-07-17 08:52:00,
2013-07-17 03:57:00,70.5,68.7,30.09,ESE,116,0.0,0.0,94,0.00,,,0.01,meteohub,2013-07-17 08:57:00,
2013-07-17 04:02:00,70.3,68.5,30.09,ESE,116,0.0,0.0,94,0.00,,,0.01,meteohub,2013-07-17 09:02:00,
2013-07-17 04:07:00,70.3,68.5,30.09,ESE,116,0.0,2.0,94,0.00,,,0.01,meteohub,2013-07-17 09:07:00,
2013-07-17 04:12:00,70.3,68.5,30.09,ESE,116,0.0,2.0,94,0.00,,,0.01,meteohub,2013-07-17 09:12:00,
2013-07-17 04:17:00,70.3,68.5,30.09,ESE,116,0.0,2.0,94,0.00,,,0.01,meteohub,2013-07-17 09:17:00,
2013-07-17 04:22:00,70.3,68.5,30.10,ESE,116,0.0,2.0,94,0.00,,,0.01,meteohub,2013-07-17 09:22:00,
2013-07-17 04:27:00,70.3,68.9,30.10,ESE,116,0.0,0.0,95,0.00,,,0.01,meteohub,2013-07-17 09:27:00,
2013-07-17 04:32:00,70.3,68.9,30.09,ESE,116,0.0,0.0,95,0.00,,,0.01,meteohub,2013-07-17 09:32:00,
2013-07-17 04:37:00,70.3,68.9,30.09,ESE,116,0.0,0.0,95,0.00,,,0.01,meteohub,2013-07-17 09:37:00,
2013-07-17 04:42:00,70.3,68.9,30.10,ESE,116,0.0,0.0,95,0.00,,,0.01,meteohub,2013-07-17 09:42:00,
2013-07-17 04:47:00,70.3,68.9,30.10,ESE,115,0.0,0.0,95,0.00,,,0.01,meteohub,2013-07-17 09:47:00,
2013-07-17 04:52:00,70.3,68.9,30.10,ESE,109,0.0,0.0,95,0.00,,,0.01,meteohub,2013-07-17 09:52:00,
2013-07-17 04:57:00,70.3,68.9,30.10,ESE,116,0.0,0.0,95,0.00,,,0.01,meteohub,2013-07-17 09:57:00,
2013-07-17 05:02:00,70.3,68.9,30.10,ESE,116,0.0,1.0,95,0.00,,,0.01,meteohub,2013-07-17 10:02:00,
2013-07-17 05:07:00,70.3,68.9,30.11,ENE,63,4.0,4.0,95,0.00,,,0.01,meteohub,2013-07-17 10:07:00,
2013-07-17 05:12:00,70.3,68.9,30.11,East,101,0.0,1.0,95,0.00,,,0.01,meteohub,2013-07-17 10:12:00,
2013-07-17 05:17:00,70.3,68.9,30.10,East,101,0.0,5.0,95,0.00,,,0.01,meteohub,2013-07-17 10:17:00,
2013-07-17 05:22:00,70.3,68.5,30.10,East,101,0.0,5.0,94,0.00,,,0.01,meteohub,2013-07-17 10:22:00,
2013-07-17 05:27:00,70.3,68.5,30.11,East,101,0.0,5.0,94,0.00,,,0.01,meteohub,2013-07-17 10:27:00,
2013-07-17 05:32:00,70.2,68.4,30.11,East,101,0.0,0.0,94,0.00,,,0.01,meteohub,2013-07-17 10:32:00,
2013-07-17 05:37:00,70.2,68.4,30.11,East,101,0.0,0.0,94,0.00,,,0.01,meteohub,2013-07-17 10:37:00,
2013-07-17 05:42:00,70.2,68.7,30.11,East,98,0.0,0.0,95,0.00,,,0.01,meteohub,2013-07-17 10:42:00,
2013-07-17 05:47:00,70.3,68.9,30.11,East,98,0.0,0.0,95,0.00,,,0.01,meteohub,2013-07-17 10:47:00,
2013-07-17 05:52:00,70.3,68.9,30.11,East,98,0.0,0.0,95,0.00,,,0.01,meteohub,2013-07-17 10:52:00,
2013-07-17 05:57:00,70.3,68.5,30.11,East,98,0.0,0.0,94,0.00,,,0.01,meteohub,2013-07-17 10:57:00,
2013-07-17 06:02:00,70.3,68.5,30.11,East,98,0.0,0.0,94,0.00,,,0.01,meteohub,2013-07-17 11:02:00,
2013-07-17 06:07:00,70.3,68.5,30.11,East,80,0.0,0.0,94,0.00,,,0.01,meteohub,2013-07-17 11:07:00,
2013-07-17 06:12:00,70.3,68.5,30.12,NE,54,0.0,0.0,94,0.00,,,0.01,meteohub,2013-07-17 11:12:00,
2013-07-17 06:18:00,70.3,68.5,30.12,NE,44,0.0,0.0,94,0.00,,,0.01,meteohub,2013-07-17 11:18:00,
2013-07-17 06:23:00,70.3,68.5,30.12,NE,44,0.0,0.0,94,0.00,,,0.01,meteohub,2013-07-17 11:23:00,
2013-07-17 06:28:00,70.3,68.5,30.12,NE,44,0.0,0.0,94,0.00,,,0.01,meteohub,2013-07-17 11:28:00,
2013-07-17 06:33:00,70.3,68.5,30.12,NE,44,0.0,0.0,94,0.00,,,0.01,meteohub,2013-07-17 11:33:00,
2013-07-17 06:38:00,70.3,68.5,30.12,NE,43,0.0,2.0,94,0.00,,,0.01,meteohub,2013-07-17 11:38:00,
2013-07-17 06:43:00,70.3,68.5,30.12,NE,53,0.0,2.0,94,0.00,,,0.01,meteohub,2013-07-17 11:43:00,
2013-07-17 06:48:00,70.3,68.5,30.13,NE,53,0.0,2.0,94,0.00,,,0.01,meteohub,2013-07-17 11:48:00,
2013-07-17 06:53:00,70.3,68.5,30.13,NNE,22,1.0,2.0,94,0.00,,,0.01,meteohub,2013-07-17 11:53:00,
2013-07-17 06:58:00,70.3,68.5,30.13,NE,43,0.0,3.0,94,0.00,,,0.01,meteohub,2013-07-17 11:58:00,
2013-07-17 07:03:00,70.3,68.5,30.13,NE,56,0.0,3.0,94,0.00,,,0.01,meteohub,2013-07-17 12:03:00,
2013-07-17 07:08:00,70.3,68.5,30.13,NE,47,0.0,3.0,94,0.00,,,0.01,meteohub,2013-07-17 12:08:00,
2013-07-17 07:13:00,70.3,68.5,30.14,NE,50,0.0,3.0,94,0.00,,,0.01,meteohub,2013-07-17 12:13:00,
2013-07-17 07:18:00,70.3,68.2,30.14,NE,50,0.0,0.0,93,0.00,,,0.01,meteohub,2013-07-17 12:18:00,
2013-07-17 07:23:00,70.3,68.5,30.14,NE,50,0.0,0.0,94,0.00,,,0.01,meteohub,2013-07-17 12:23:00,
2013-07-17 07:28:00,70.3,68.2,30.14,NE,50,0.0,0.0,93,0.00,,,0.01,meteohub,2013-07-17 12:28:00,
2013-07-17 07:33:00,70.3,68.2,30.14,NE,50,0.0,0.0,93,0.00,,,0.01,meteohub,2013-07-17 12:33:00,
2013-07-17 07:38:00,70.5,68.4,30.14,NE,50,0.0,0.0,93,0.00,,,0.01,meteohub,2013-07-17 12:38:00,
2013-07-17 07:43:00,70.5,68.7,30.14,NE,50,0.0,0.0,94,0.00,,,0.01,meteohub,2013-07-17 12:43:00,
2013-07-17 07:48:00,70.5,68.4,30.14,NE,50,0.0,0.0,93,0.00,,,0.01,meteohub,2013-07-17 12:48:00,
2013-07-17 07:53:00,70.5,68.4,30.14,NE,50,0.0,0.0,93,0.00,,,0.01,meteohub,2013-07-17 12:53:00,
2013-07-17 07:58:00,70.7,68.5,30.14,NE,55,0.0,4.0,93,0.00,,,0.01,meteohub,2013-07-17 12:58:00,
2013-07-17 08:03:00,70.9,68.7,30.15,NE,48,0.0,4.0,93,0.00,,,0.01,meteohub,2013-07-17 13:03:00,
2013-07-17 08:08:00,70.9,68.4,30.15,ENE,60,0.0,4.0,92,0.00,,,0.01,meteohub,2013-07-17 13:08:00,
2013-07-17 08:13:00,70.9,68.4,30.15,ENE,59,0.0,4.0,92,0.00,,,0.01,meteohub,2013-07-17 13:13:00,
2013-07-17 08:18:00,71.1,68.5,30.15,ENE,60,0.0,4.0,92,0.00,,,0.01,meteohub,2013-07-17 13:18:00,
2013-07-17 08:23:00,71.1,68.5,30.15,ENE,63,0.0,4.0,92,0.00,,,0.01,meteohub,2013-07-17 13:23:00,
2013-07-17 08:28:00,71.2,68.7,30.15,SW,236,0.0,4.0,92,0.00,,,0.01,meteohub,2013-07-17 13:28:00,
2013-07-17 08:33:00,71.2,68.7,30.15,NE,51,0.0,4.0,92,0.00,,,0.01,meteohub,2013-07-17 13:33:00,
2013-07-17 08:38:00,71.4,68.7,30.15,NE,54,0.0,4.0,91,0.00,,,0.01,meteohub,2013-07-17 13:38:00,
2013-07-17 08:43:00,71.4,68.7,30.15,NNE,26,0.0,4.0,91,0.00,,,0.01,meteohub,2013-07-17 13:43:00,
2013-07-17 08:48:00,71.6,68.9,30.16,East,81,0.0,4.0,91,0.00,,,0.01,meteohub,2013-07-17 13:48:00,
2013-07-17 08:53:00,71.8,68.7,30.16,SE,134,0.0,4.0,90,0.00,,,0.01,meteohub,2013-07-17 13:53:00,
2013-07-17 08:58:00,71.6,68.5,30.16,ENE,75,0.0,5.0,90,0.00,,,0.01,meteohub,2013-07-17 13:58:00,
2013-07-17 09:03:00,71.6,68.5,30.16,ENE,76,0.0,5.0,90,0.00,,,0.01,meteohub,2013-07-17 14:03:00,
2013-07-17 09:04:00,71.6,68.5,30.16,ENE,76,0.0,5.0,90,0.00,,,0.01,meteohub,2013-07-17 14:04:00,
2013-07-17 09:09:00,71.6,68.5,30.17,East,97,2.0,5.0,90,0.00,,,0.01,meteohub,2013-07-17 14:09:00,
2013-07-17 09:14:00,71.4,68.4,30.17,ENE,69,7.0,7.0,90,0.00,,,0.01,meteohub,2013-07-17 14:14:00,
2013-07-17 09:19:00,71.4,68.4,30.17,ENE,58,0.0,7.0,90,0.00,,,0.01,meteohub,2013-07-17 14:19:00,
2013-07-17 09:24:00,71.4,68.4,30.17,ENE,78,0.0,7.0,90,0.00,,,0.01,meteohub,2013-07-17 14:24:00,
2013-07-17 09:29:00,71.4,68.4,30.17,ESE,114,0.0,8.0,90,0.00,,,0.01,meteohub,2013-07-17 14:29:00,
2013-07-17 09:34:00,71.4,68.4,30.17,ESE,108,0.0,8.0,90,0.00,,,0.01,meteohub,2013-07-17 14:34:00,
2013-07-17 09:39:00,71.6,68.5,30.17,ESE,105,0.0,8.0,90,0.00,,,0.01,meteohub,2013-07-17 14:39:00,
2013-07-17 09:44:00,71.8,69.1,30.17,East,84,0.0,4.0,91,0.00,,,0.01,meteohub,2013-07-17 14:44:00,
2013-07-17 09:49:00,72.0,68.9,30.16,ENE,71,0.0,4.0,90,0.00,,,0.01,meteohub,2013-07-17 14:49:00,
2013-07-17 09:54:00,72.0,68.9,30.16,ENE,61,0.0,4.0,90,0.00,,,0.01,meteohub,2013-07-17 14:54:00,
2013-07-17 09:59:00,72.1,69.4,30.17,ESE,104,0.0,4.0,91,0.00,,,0.01,meteohub,2013-07-17 14:59:00,
2013-07-17 10:04:00,72.1,69.1,30.17,ESE,103,0.0,4.0,90,0.00,,,0.01,meteohub,2013-07-17 15:04:00,
2013-07-17 10:09:00,72.3,69.3,30.17,ESE,105,0.0,4.0,90,0.00,,,0.01,meteohub,2013-07-17 15:09:00,
2013-07-17 10:14:00,72.3,68.9,30.16,East,90,0.0,4.0,89,0.00,,,0.01,meteohub,2013-07-17 15:14:00,
2013-07-17 10:19:00,72.5,69.1,30.16,East,90,0.0,4.0,89,0.00,,,0.01,meteohub,2013-07-17 15:19:00,
2013-07-17 10:24:00,72.7,69.3,30.16,East,90,0.0,4.0,89,0.00,,,0.01,meteohub,2013-07-17 15:24:00,
2013-07-17 10:29:00,72.9,69.4,30.16,East,90,0.0,0.0,89,0.00,,,0.01,meteohub,2013-07-17 15:29:00,
2013-07-17 10:34:00,72.9,69.4,30.16,ENE,59,0.0,0.0,89,0.00,,,0.01,meteohub,2013-07-17 15:34:00,
2013-07-17 10:39:00,72.5,69.4,30.16,NE,50,0.0,0.0,90,0.00,,,0.01,meteohub,2013-07-17 15:39:00,
2013-07-17 10:44:00,72.3,69.6,30.16,NE,42,0.0,7.0,91,0.00,,,0.01,meteohub,2013-07-17 15:44:00,
2013-07-17 10:49:00,72.5,70.0,30.16,ENE,77,0.0,7.0,92,0.00,,,0.01,meteohub,2013-07-17 15:49:00,
2013-07-17 10:54:00,72.7,70.0,30.16,ENE,71,3.0,7.0,91,0.00,,,0.01,meteohub,2013-07-17 15:54:00,
2013-07-17 10:59:00,72.7,70.0,30.16,ENE,61,0.0,6.0,91,0.00,,,0.01,meteohub,2013-07-17 15:59:00,
2013-07-17 11:04:00,72.9,70.2,30.16,ESE,111,0.0,6.0,91,0.00,,,0.01,meteohub,2013-07-17 16:04:00,
2013-07-17 11:09:00,73.0,70.0,30.16,East,92,0.0,6.0,90,0.00,,,0.01,meteohub,2013-07-17 16:09:00,
2013-07-17 11:14:00,73.2,70.2,30.16,SE,131,0.0,1.0,90,0.00,,,0.01,meteohub,2013-07-17 16:14:00,
2013-07-17 11:19:00,73.8,70.0,30.16,SSE,155,0.0,1.0,88,0.00,,,0.01,meteohub,2013-07-17 16:19:00,
2013-07-17 11:24:00,74.1,70.3,30.16,SSE,154,0.0,1.0,88,0.00,,,0.01,meteohub,2013-07-17 16:24:00,
2013-07-17 11:29:00,74.7,70.5,30.16,SE,126,1.0,0.0,87,0.00,,,0.01,meteohub,2013-07-17 16:29:00,
2013-07-17 11:34:00,75.0,70.2,30.16,ENE,66,0.0,0.0,85,0.00,,,0.01,meteohub,2013-07-17 16:34:00,
2013-07-17 11:39:00,75.6,71.1,30.16,NW,321,0.0,0.0,86,0.00,,,0.01,meteohub,2013-07-17 16:39:00,
2013-07-17 11:44:00,75.9,70.7,30.16,SE,137,0.0,5.0,84,0.00,,,0.01,meteohub,2013-07-17 16:44:00,
2013-07-17 11:49:00,76.1,70.2,30.16,ESE,109,0.0,5.0,82,0.00,,,0.01,meteohub,2013-07-17 16:49:00,
2013-07-17 11:55:00,76.3,70.7,30.16,East,91,0.0,5.0,83,0.00,,,0.01,meteohub,2013-07-17 16:55:00,
2013-07-17 12:00:00,76.5,70.5,30.16,SSE,166,5.0,5.0,82,0.00,,,0.01,meteohub,2013-07-17 17:00:00,
2013-07-17 12:05:00,76.6,70.3,30.15,ENE,75,0.0,4.0,81,0.00,,,0.01,meteohub,2013-07-17 17:05:00,
2013-07-17 12:10:00,76.6,70.0,30.15,NE,51,0.0,4.0,80,0.00,,,0.01,meteohub,2013-07-17 17:10:00,
2013-07-17 12:15:00,76.6,70.3,30.15,ENE,71,0.0,10.0,81,0.00,,,0.01,meteohub,2013-07-17 17:15:00,
2013-07-17 12:20:00,76.5,70.5,30.15,ESE,114,0.0,10.0,82,0.00,,,0.01,meteohub,2013-07-17 17:20:00,
2013-07-17 12:25:00,76.6,70.3,30.15,ESE,122,0.0,10.0,81,0.00,,,0.01,meteohub,2013-07-17 17:25:00,
2013-07-17 12:30:00,76.6,70.3,30.15,ENE,75,0.0,10.0,81,0.00,,,0.01,meteohub,2013-07-17 17:30:00,
2013-07-17 12:35:00,76.5,70.5,30.15,East,96,0.0,10.0,82,0.00,,,0.01,meteohub,2013-07-17 17:35:00,
2013-07-17 12:40:00,76.3,70.3,30.14,East,96,0.0,2.0,82,0.00,,,0.01,meteohub,2013-07-17 17:40:00,
2013-07-17 12:45:00,76.3,70.3,30.14,East,96,0.0,2.0,82,0.00,,,0.01,meteohub,2013-07-17 17:45:00,
2013-07-17 12:50:00,76.5,70.5,30.14,East,96,0.0,2.0,82,0.00,,,0.01,meteohub,2013-07-17 17:50:00,
2013-07-17 12:55:00,76.8,70.5,30.14,East,96,0.0,0.0,81,0.00,,,0.01,meteohub,2013-07-17 17:55:00,
2013-07-17 13:00:00,77.2,70.9,30.14,East,96,0.0,0.0,81,0.00,,,0.01,meteohub,2013-07-17 18:00:00,
2013-07-17 13:05:00,77.2,70.9,30.14,SSE,155,0.0,0.0,81,0.00,,,0.01,meteohub,2013-07-17 18:05:00,
2013-07-17 13:10:00,77.0,70.7,30.14,SSE,152,1.0,0.0,81,0.00,,,0.01,meteohub,2013-07-17 18:10:00,
2013-07-17 13:15:00,77.0,70.3,30.14,SE,140,0.0,0.0,80,0.00,,,0.01,meteohub,2013-07-17 18:15:00,
2013-07-17 13:20:00,77.4,70.3,30.14,East,89,3.0,7.0,79,0.00,,,0.01,meteohub,2013-07-17 18:20:00,
2013-07-17 13:25:00,77.4,71.1,30.14,ENE,68,0.0,7.0,81,0.00,,,0.01,meteohub,2013-07-17 18:25:00,
2013-07-17 13:30:00,76.8,70.9,30.14,ENE,76,2.0,7.0,82,0.00,,,0.01,meteohub,2013-07-17 18:30:00,
2013-07-17 13:35:00,76.1,70.9,30.14,SE,134,5.0,9.0,84,0.00,,,0.01,meteohub,2013-07-17 18:35:00,
2013-07-17 13:40:00,75.2,70.7,30.14,East,81,0.0,9.0,86,0.00,,,0.01,meteohub,2013-07-17 18:40:00,
2013-07-17 13:45:00,74.5,70.7,30.14,East,81,0.0,9.0,88,0.02,,,0.03,meteohub,2013-07-17 18:45:00,
2013-07-17 13:50:00,74.1,70.7,30.14,East,81,0.0,8.0,89,0.02,,,0.03,meteohub,2013-07-17 18:50:00,
2013-07-17 13:55:00,74.1,71.1,30.13,East,81,0.0,3.0,90,0.02,,,0.03,meteohub,2013-07-17 18:55:00,
2013-07-17 14:00:00,74.5,71.4,30.13,East,81,0.0,3.0,90,0.02,,,0.03,meteohub,2013-07-17 19:00:00,
2013-07-17 14:05:00,74.8,71.8,30.13,East,79,0.0,3.0,90,0.02,,,0.03,meteohub,2013-07-17 19:05:00,
2013-07-17 14:10:00,75.4,72.0,30.13,SSE,150,0.0,0.0,89,0.02,,,0.03,meteohub,2013-07-17 19:10:00,
2013-07-17 14:16:00,75.7,72.3,30.13,SE,134,0.0,8.0,89,0.02,,,0.03,meteohub,2013-07-17 19:16:00,
2013-07-17 14:21:00,75.9,71.4,30.12,ESE,109,1.0,8.0,86,0.02,,,0.03,meteohub,2013-07-17 19:21:00,
2013-07-17 14:26:00,75.6,71.4,30.12,East,98,0.0,8.0,87,0.02,,,0.03,meteohub,2013-07-17 19:26:00,
2013-07-17 14:31:00,75.0,71.2,30.12,East,80,0.0,8.0,88,0.02,,,0.04,meteohub,2013-07-17 19:31:00,
2013-07-17 14:36:00,74.8,71.4,30.12,ESE,120,0.0,8.0,89,0.02,,,0.04,meteohub,2013-07-17 19:36:00,
2013-07-17 14:41:00,74.8,72.0,30.12,SE,145,0.0,8.0,91,0.02,,,0.04,meteohub,2013-07-17 19:41:00,
2013-07-17 14:46:00,74.8,72.0,30.12,SSE,150,0.0,7.0,91,0.01,,,0.04,meteohub,2013-07-17 19:46:00,
2013-07-17 14:51:00,75.0,72.1,30.12,SSE,149,0.0,7.0,91,0.01,,,0.04,meteohub,2013-07-17 19:51:00,
2013-07-17 14:56:00,75.2,72.1,30.12,ESE,122,0.0,5.0,90,0.01,,,0.04,meteohub,2013-07-17 19:56:00,
2013-07-17 15:01:00,75.7,72.7,30.11,SE,128,0.0,5.0,90,0.01,,,0.04,meteohub,2013-07-17 20:01:00,
2013-07-17 15:06:00,76.3,72.5,30.11,East,88,0.0,5.0,88,0.01,,,0.04,meteohub,2013-07-17 20:06:00,
2013-07-17 15:11:00,76.8,72.0,30.10,ESE,122,4.0,6.0,85,0.01,,,0.04,meteohub,2013-07-17 20:11:00,
2013-07-17 15:16:00,77.4,72.1,30.10,ESE,119,0.0,7.0,84,0.01,,,0.04,meteohub,2013-07-17 20:16:00,
2013-07-17 15:21:00,77.7,72.1,30.10,ENE,72,4.0,7.0,83,0.01,,,0.04,meteohub,2013-07-17 20:21:00,
2013-07-17 15:26:00,78.1,72.9,30.10,SE,126,5.0,8.0,84,0.01,,,0.04,meteohub,2013-07-17 20:26:00,
2013-07-17 15:31:00,78.4,72.1,30.10,East,81,2.0,8.0,81,0.01,,,0.04,meteohub,2013-07-17 20:31:00,
2013-07-17 15:36:00,78.8,72.1,30.10,ENE,77,6.0,9.0,80,0.00,,,0.04,meteohub,2013-07-17 20:36:00,
2013-07-17 15:41:00,79.0,71.1,30.09,ENE,76,4.0,9.0,77,0.00,,,0.04,meteohub,2013-07-17 20:41:00,
2013-07-17 15:46:00,79.2,71.2,30.09,ESE,111,2.0,12.0,77,0.00,,,0.04,meteohub,2013-07-17 20:46:00,
2013-07-17 15:51:00,79.5,71.6,30.09,SE,144,0.0,12.0,77,0.00,,,0.04,meteohub,2013-07-17 20:51:00,
2013-07-17 15:56:00,80.2,71.6,30.09,ENE,70,4.0,12.0,75,0.00,,,0.04,meteohub,2013-07-17 20:56:00,
2013-07-17 16:01:00,80.2,71.2,30.08,NE,36,0.0,12.0,74,0.00,,,0.04,meteohub,2013-07-17 21:01:00,
2013-07-17 16:06:00,80.2,72.3,30.08,ESE,120,2.0,12.0,77,0.00,,,0.04,meteohub,2013-07-17 21:06:00,
2013-07-17 16:11:00,80.1,71.4,30.08,ENE,57,2.0,7.0,75,0.00,,,0.04,meteohub,2013-07-17 21:11:00,
2013-07-17 16:16:00,80.4,72.1,30.08,SE,135,0.0,8.0,76,0.00,,,0.04,meteohub,2013-07-17 21:16:00,
2013-07-17 16:21:00,80.8,70.9,30.08,ENE,73,1.0,8.0,72,0.00,,,0.04,meteohub,2013-07-17 21:21:00,
2013-07-17 16:26:00,81.1,70.9,30.08,ENE,65,6.0,10.0,71,0.00,,,0.04,meteohub,2013-07-17 21:26:00,
2013-07-17 16:31:00,81.1,70.3,30.08,ENE,75,2.0,10.0,70,0.00,,,0.04,meteohub,2013-07-17 21:31:00,
2013-07-17 16:32:00,81.1,70.3,30.08,ENE,75,0.0,10.0,70,0.00,,,0.04,meteohub,2013-07-17 21:32:00,
2013-07-17 16:37:00,81.3,70.2,30.08,ENE,57,1.0,10.0,69,0.00,,,0.04,meteohub,2013-07-17 21:37:00,
2013-07-17 16:43:00,81.5,71.6,30.08,ENE,71,5.0,10.0,72,0.00,,,0.04,meteohub,2013-07-17 21:43:00,
2013-07-17 16:48:00,81.1,72.1,30.08,East,94,1.0,6.0,74,0.00,,,0.04,meteohub,2013-07-17 21:48:00,
2013-07-17 16:53:00,81.0,71.4,30.08,ENE,65,4.0,6.0,73,0.00,,,0.04,meteohub,2013-07-17 21:53:00,
2013-07-17 16:58:00,81.0,71.1,30.08,ESE,117,0.0,11.0,72,0.00,,,0.04,meteohub,2013-07-17 21:58:00,
2013-07-17 17:03:00,81.1,70.3,30.08,ENE,60,0.0,11.0,70,0.00,,,0.04,meteohub,2013-07-17 22:03:00,
2013-07-17 17:08:00,81.1,71.2,30.08,East,97,0.0,8.0,72,0.00,,,0.04,meteohub,2013-07-17 22:08:00,
2013-07-17 17:13:00,81.1,71.2,30.07,NE,40,6.0,8.0,72,0.00,,,0.04,meteohub,2013-07-17 22:13:00,
2013-07-17 17:18:00,81.0,70.7,30.07,East,85,0.0,7.0,71,0.00,,,0.04,meteohub,2013-07-17 22:18:00,
2013-07-17 17:23:00,81.0,70.2,30.07,East,80,0.0,7.0,70,0.00,,,0.04,meteohub,2013-07-17 22:23:00,
2013-07-17 17:28:00,81.1,70.3,30.07,NE,56,3.0,7.0,70,0.00,,,0.04,meteohub,2013-07-17 22:28:00,
2013-07-17 17:33:00,81.3,70.2,30.07,ENE,76,0.0,7.0,69,0.00,,,0.04,meteohub,2013-07-17 22:33:00,
2013-07-17 17:38:00,81.7,70.2,30.07,ENE,76,0.0,11.0,68,0.00,,,0.04,meteohub,2013-07-17 22:38:00,
2013-07-17 17:43:00,82.0,68.7,30.06,ESE,111,0.0,11.0,64,0.00,,,0.04,meteohub,2013-07-17 22:43:00,
2013-07-17 17:48:00,82.2,68.9,30.06,SE,141,4.0,11.0,64,0.00,,,0.04,meteohub,2013-07-17 22:48:00,
2013-07-17 17:53:00,82.4,68.0,30.06,ENE,78,0.0,11.0,62,0.00,,,0.04,meteohub,2013-07-17 22:53:00,
2013-07-17 17:58:00,82.4,68.0,30.06,ESE,121,0.0,6.0,62,0.00,,,0.04,meteohub,2013-07-17 22:58:00,
2013-07-17 18:03:00,82.6,68.7,30.06,ENE,60,0.0,6.0,63,0.00,,,0.04,meteohub,2013-07-17 23:03:00,
2013-07-17 18:08:00,82.6,70.0,30.06,East,84,0.0,7.0,66,0.00,,,0.04,meteohub,2013-07-17 23:08:00,
2013-07-17 18:13:00,82.0,69.6,30.06,NE,43,2.0,7.0,66,0.00,,,0.04,meteohub,2013-07-17 23:13:00,
2013-07-17 18:18:00,81.7,69.6,30.06,East,82,0.0,9.0,67,0.00,,,0.04,meteohub,2013-07-17 23:18:00,
2013-07-17 18:23:00,81.7,70.2,30.06,East,97,0.0,9.0,68,0.00,,,0.04,meteohub,2013-07-17 23:23:00,
2013-07-17 18:28:00,81.7,69.3,30.07,East,86,4.0,8.0,66,0.00,,,0.04,meteohub,2013-07-17 23:28:00,
2013-07-17 18:33:00,81.7,68.7,30.07,SE,133,0.0,8.0,65,0.00,,,0.04,meteohub,2013-07-17 23:33:00,
2013-07-17 18:38:00,81.9,69.8,30.07,East,94,0.0,8.0,67,0.00,,,0.04,meteohub,2013-07-17 23:38:00,
2013-07-17 18:43:00,82.0,70.0,30.07,ESE,119,4.0,8.0,67,0.00,,,0.04,meteohub,2013-07-17 23:43:00,
2013-07-17 18:48:00,81.7,69.6,30.07,SE,134,1.0,8.0,67,0.00,,,0.04,meteohub,2013-07-17 23:48:00,
2013-07-17 18:54:00,81.3,68.4,30.07,SE,143,6.0,8.0,65,0.00,,,0.04,meteohub,2013-07-17 23:54:00,
2013-07-17 18:59:00,81.1,68.7,30.07,ESE,108,1.0,12.0,66,0.00,,,0.04,meteohub,2013-07-17 23:59:00,
2013-07-17 19:04:00,81.0,68.9,30.07,ESE,113,1.0,12.0,67,0.00,,,0.04,meteohub,2013-07-18 00:04:00,
2013-07-17 19:09:00,81.0,69.8,30.07,ESE,115,0.0,10.0,69,0.00,,,0.04,meteohub,2013-07-18 00:09:00,
2013-07-17 19:14:00,80.8,70.2,30.07,ESE,117,4.0,10.0,70,0.00,,,0.04,meteohub,2013-07-18 00:14:00,
2013-07-17 19:19:00,80.8,70.2,30.07,ESE,122,0.0,10.0,70,0.00,,,0.04,meteohub,2013-07-18 00:19:00,
2013-07-17 19:24:00,80.6,69.4,30.08,SSE,159,5.0,10.0,69,0.00,,,0.04,meteohub,2013-07-18 00:24:00,
2013-07-17 19:29:00,80.4,68.9,30.08,SE,129,7.0,9.0,68,0.00,,,0.04,meteohub,2013-07-18 00:29:00,
2013-07-17 19:34:00,80.2,69.1,30.08,ESE,121,0.0,9.0,69,0.00,,,0.04,meteohub,2013-07-18 00:34:00,
2013-07-17 19:39:00,80.2,69.6,30.07,SE,144,0.0,11.0,70,0.00,,,0.04,meteohub,2013-07-18 00:39:00,
2013-07-17 19:44:00,80.2,69.6,30.07,ESE,111,0.0,11.0,70,0.00,,,0.04,meteohub,2013-07-18 00:44:00,
2013-07-17 19:49:00,80.1,69.4,30.07,ESE,120,4.0,7.0,70,0.00,,,0.04,meteohub,2013-07-18 00:49:00,
2013-07-17 19:54:00,80.1,69.8,30.08,ESE,115,0.0,7.0,71,0.00,,,0.04,meteohub,2013-07-18 00:54:00,
2013-07-17 19:59:00,79.9,70.0,30.08,ESE,117,2.0,7.0,72,0.00,,,0.04,meteohub,2013-07-18 00:59:00,
2013-07-17 20:04:00,79.9,70.0,30.08,ESE,110,0.0,7.0,72,0.00,,,0.04,meteohub,2013-07-18 01:04:00,
2013-07-17 20:09:00,79.7,70.3,30.09,South,175,11.0,11.0,73,0.00,,,0.04,meteohub,2013-07-18 01:09:00,
2013-07-17 20:14:00,79.2,68.9,30.10,South,175,6.0,8.0,71,0.00,,,0.04,meteohub,2013-07-18 01:14:00,
2013-07-17 20:19:00,78.3,69.3,30.10,SE,128,14.0,17.0,74,0.00,,,0.04,meteohub,2013-07-18 01:19:00,
2013-07-17 20:24:00,76.5,69.1,30.11,SSW,198,3.0,17.0,78,0.00,,,0.04,meteohub,2013-07-18 01:24:00,
2013-07-17 20:29:00,74.8,68.5,30.11,SE,144,12.0,21.0,81,0.00,,,0.04,meteohub,2013-07-18 01:29:00,
2013-07-17 20:34:00,73.6,68.4,30.11,SE,136,7.0,21.0,84,0.00,,,0.04,meteohub,2013-07-18 01:34:00,
2013-07-17 20:39:00,72.5,68.0,30.12,SE,134,4.0,21.0,86,0.00,,,0.04,meteohub,2013-07-18 01:39:00,
2013-07-17 20:44:00,72.0,67.8,30.11,ESE,114,0.0,21.0,87,0.00,,,0.04,meteohub,2013-07-18 01:44:00,
2013-07-17 20:49:00,71.8,68.0,30.11,ESE,115,0.0,14.0,88,0.00,,,0.04,meteohub,2013-07-18 01:49:00,
2013-07-17 20:54:00,71.6,68.2,30.12,ESE,121,0.0,14.0,89,0.00,,,0.04,meteohub,2013-07-18 01:54:00,
2013-07-17 20:59:00,71.4,68.0,30.11,SE,124,0.0,12.0,89,0.00,,,0.04,meteohub,2013-07-18 01:59:00,
2013-07-17 21:04:00,71.4,68.0,30.11,SE,127,0.0,12.0,89,0.00,,,0.04,meteohub,2013-07-18 02:04:00,
2013-07-17 21:09:00,71.4,68.4,30.11,East,94,0.0,6.0,90,0.00,,,0.04,meteohub,2013-07-18 02:09:00,
2013-07-17 21:14:00,71.4,68.4,30.11,ENE,66,0.0,6.0,90,0.00,,,0.04,meteohub,2013-07-18 02:14:00,
2013-07-17 21:19:00,71.8,68.4,30.12,East,94,0.0,5.0,89,0.00,,,0.04,meteohub,2013-07-18 02:19:00,
2013-07-17 21:24:00,71.8,68.4,30.12,East,90,0.0,5.0,89,0.00,,,0.04,meteohub,2013-07-18 02:24:00,
2013-07-17 21:29:00,72.0,68.9,30.12,East,85,0.0,7.0,90,0.00,,,0.04,meteohub,2013-07-18 02:29:00,
2013-07-17 21:34:00,72.0,68.5,30.12,ENE,63,0.0,7.0,89,0.00,,,0.04,meteohub,2013-07-18 02:34:00,
2013-07-17 21:39:00,72.1,69.1,30.12,ENE,72,0.0,5.0,90,0.00,,,0.04,meteohub,2013-07-18 02:39:00,
2013-07-17 21:45:00,72.1,68.7,30.12,East,86,0.0,5.0,89,0.00,,,0.04,meteohub,2013-07-18 02:45:00,
2013-07-17 21:50:00,72.3,68.9,30.12,ENE,76,6.0,7.0,89,0.00,,,0.04,meteohub,2013-07-18 02:50:00,
2013-07-17 21:55:00,72.1,69.1,30.12,SSW,213,0.0,7.0,90,0.01,,,0.04,meteohub,2013-07-18 02:55:00,
2013-07-17 22:00:00,72.1,69.1,30.12,SE,135,0.0,7.0,90,0.01,,,0.04,meteohub,2013-07-18 03:00:00,
2013-07-17 22:05:00,72.0,68.9,30.12,South,187,0.0,7.0,90,0.01,,,0.05,meteohub,2013-07-18 03:05:00,
2013-07-17 22:10:00,71.6,68.2,30.12,East,90,4.0,8.0,89,0.02,,,0.05,meteohub,2013-07-18 03:10:00,
2013-07-17 22:15:00,71.2,67.8,30.12,ESE,108,0.0,8.0,89,0.02,,,0.06,meteohub,2013-07-18 03:15:00,
2013-07-17 22:20:00,70.9,67.5,30.12,East,92,0.0,8.0,89,0.02,,,0.06,meteohub,2013-07-18 03:20:00,
2013-07-17 22:25:00,70.7,67.6,30.12,East,101,0.0,8.0,90,0.03,,,0.07,meteohub,2013-07-18 03:25:00,
2013-07-17 22:30:00,70.5,67.8,30.12,East,87,0.0,9.0,91,0.03,,,0.07,meteohub,2013-07-18 03:30:00,
2013-07-17 22:35:00,70.3,67.6,30.12,ESE,102,0.0,9.0,91,0.03,,,0.07,meteohub,2013-07-18 03:35:00,
2013-07-17 22:40:00,70.3,67.6,30.12,ESE,107,0.0,3.0,91,0.03,,,0.07,meteohub,2013-07-18 03:40:00,
2013-07-17 22:45:00,70.2,67.6,30.12,ENE,67,0.0,3.0,92,0.04,,,0.08,meteohub,2013-07-18 03:45:00,
2013-07-17 22:50:00,70.2,67.6,30.11,ENE,68,0.0,4.0,92,0.04,,,0.08,meteohub,2013-07-18 03:50:00,
2013-07-17 22:55:00,70.2,67.6,30.11,ENE,67,0.0,4.0,92,0.03,,,0.08,meteohub,2013-07-18 03:55:00,
2013-07-17 23:00:00,70.0,67.8,30.11,ENE,75,0.0,4.0,93,0.03,,,0.08,meteohub,2013-07-18 04:00:00,
2013-07-17 23:01:00,70.0,67.8,30.11,ENE,75,0.0,4.0,93,0.03,,,0.08,meteohub,2013-07-18 04:01:00,
2013-07-17 23:02:00,70.0,67.8,30.11,ENE,75,0.0,4.0,93,0.03,,,0.08,meteohub,2013-07-18 04:02:00,
2013-07-17 23:07:00,70.0,67.8,30.11,ENE,76,0.0,4.0,93,0.02,,,0.08,meteohub,2013-07-18 04:07:00,
2013-07-17 23:12:00,70.0,67.8,30.11,East,86,0.0,0.0,93,0.02,,,0.08,meteohub,2013-07-18 04:12:00,
2013-07-17 23:17:00,70.0,67.8,30.11,ESE,121,0.0,0.0,93,0.03,,,0.08,meteohub,2013-07-18 04:17:00,
2013-07-17 23:22:00,69.8,67.6,30.11,ESE,109,0.0,0.0,93,0.03,,,0.09,meteohub,2013-07-18 04:22:00,
2013-07-17 23:27:00,69.8,67.6,30.11,ESE,103,0.0,0.0,93,0.02,,,0.09,meteohub,2013-07-18 04:27:00,
2013-07-17 23:32:00,69.8,67.6,30.11,ESE,118,0.0,0.0,93,0.02,,,0.09,meteohub,2013-07-18 04:32:00,
2013-07-17 23:37:00,69.8,67.6,30.11,ESE,114,0.0,7.0,93,0.02,,,0.09,meteohub,2013-07-18 04:37:00,
2013-07-17 23:42:00,69.8,67.6,30.11,SE,141,0.0,7.0,93,0.02,,,0.09,meteohub,2013-07-18 04:42:00,
2013-07-17 23:47:00,69.6,67.5,30.11,ESE,109,0.0,8.0,93,0.01,,,0.09,meteohub,2013-07-18 04:47:00,
2013-07-17 23:52:00,69.6,67.5,30.12,East,96,0.0,8.0,93,0.01,,,0.09,meteohub,2013-07-18 04:52:00,
2013-07-17 23:57:00,69.6,67.5,30.12,ESE,115,0.0,8.0,93,0.01,,,0.09,meteohub,2013-07-18 04:57:00,